Weather History for KFDY - August, 2013

Change the Weather History Date:

Sunday, August 18, 2013

  Actual Average Record
Temperature  
Mean Temperature 68 °F -  
Max Temperature 80 °F 81 °F 90 °F (1955)
Min Temperature 57 °F 60 °F 46 °F (1977)
Cooling Degree Days 3    
Growing Degree Days 18 (Base 50)    
Moisture  
Dew Point 57 °F    
Average Humidity 73    
Maximum Humidity 100    
Minimum Humidity 40    
Precipitation  
Precipitation 0.00 in - - ()
Sea Level Pressure  
Sea Level Pressure 30.15 in    
Wind  
Wind Speed 3 mph (East)    
Max Wind Speed 10 mph    
Max Gust Speed -    
Visibility 8 miles    
Events      
Averages and records for this station are not official NWS values.
T = Trace of Precipitation, MM = Missing Value Source: NWS Daily Summary

Daily Weather History Graph

Daily Weather History Graph

Search for Another Location

Airport or City:

Trip Planner

Search our weather history database for the weather conditions in past years. The results will help you decide how hot, cold, wet, or windy it might be!

Date:

Astronomy

Aug. 18, 2013 Rise Set
Actual Time 6:47 AM EDT 8:28 PM EDT
Civil Twilight 6:18 AM EDT 8:57 PM EDT
Nautical Twilight 5:42 AM EDT 9:32 PM EDT
Astronomical Twilight 5:04 AM EDT 10:10 PM EDT
Moon 6:34 PM EDT (8/18) 3:55 AM EDT (8/18)
Length of Visible Light 14h 39m
Length of Day
13h 40m
Waxing Gibbous, 92% of the Moon is Illuminated
Aug 18
Waxing Gibbous
Aug 20
Full
Aug 28
Last Quarter
Sep 5
New
Sep 12
First Quarter

Hourly Weather History & Observations

Time (EDT) Temp. Dew Point Humidity Pressure Visibility Wind Dir Wind Speed Gust Speed Precip Events Conditions
12:53 AM 64.0 °F 60.1 °F 87% 30.16 in 10.0 mi East 8.1 mph - N/A   Clear
1:53 AM 60.1 °F 57.9 °F 93% 30.17 in 6.0 mi ESE 3.5 mph - N/A   Clear
2:53 AM 61.0 °F 57.9 °F 90% 30.16 in 5.0 mi Calm Calm - N/A   Clear
3:53 AM 60.1 °F 57.0 °F 90% 30.15 in 6.0 mi Calm Calm - N/A   Clear
4:10 AM 57.2 °F 57.2 °F 100% 30.17 in 2.5 mi Calm Calm - N/A   Clear
4:19 AM 57.2 °F 57.2 °F 100% 30.17 in 3.0 mi Calm Calm - N/A   Clear
4:53 AM 57.0 °F 55.0 °F 93% 30.15 in 6.0 mi Calm Calm - N/A   Clear
5:53 AM 60.1 °F 57.0 °F 90% 30.15 in 8.0 mi Calm Calm - N/A   Clear
6:53 AM 57.0 °F 55.0 °F 93% 30.17 in 6.0 mi Calm Calm - N/A   Clear
7:53 AM 57.0 °F 55.0 °F 93% 30.19 in 4.0 mi Calm Calm - N/A   Clear
8:10 AM 57.2 °F 55.4 °F 94% 30.20 in 2.5 mi Calm Calm - N/A   Clear
8:19 AM 59.0 °F 57.2 °F 94% 30.21 in 5.0 mi NW 3.5 mph - N/A   Clear
8:53 AM 64.9 °F 60.1 °F 84% 30.19 in 9.0 mi Calm Calm - N/A   Clear
9:53 AM 73.0 °F 59.0 °F 61% 30.19 in 10.0 mi North 3.5 mph - N/A   Clear
10:53 AM 75.0 °F 57.9 °F 55% 30.19 in 10.0 mi ENE 6.9 mph - N/A   Clear
11:53 AM 75.9 °F 57.9 °F 54% 30.19 in 10.0 mi East 9.2 mph - N/A   Partly Cloudy
12:53 PM 77.0 °F 55.9 °F 48% 30.17 in 10.0 mi ENE 8.1 mph - N/A   Partly Cloudy
1:53 PM 77.0 °F 57.0 °F 50% 30.16 in 10.0 mi ESE 10.4 mph - N/A   Clear
2:53 PM 79.0 °F 55.0 °F 44% 30.15 in 10.0 mi Variable 6.9 mph - N/A   Clear
3:53 PM 78.1 °F 55.9 °F 46% 30.13 in 10.0 mi East 8.1 mph - N/A   Clear
4:53 PM 78.1 °F 55.0 °F 45% 30.12 in 10.0 mi ESE 6.9 mph - N/A   Clear
5:53 PM 78.1 °F 52.0 °F 40% 30.11 in 10.0 mi East 3.5 mph - N/A   Clear
6:53 PM 77.0 °F 55.0 °F 47% 30.10 in 10.0 mi Calm Calm - N/A   Clear
7:53 PM 73.9 °F 60.1 °F 62% 30.10 in 10.0 mi Calm Calm - N/A   Clear
8:53 PM 72.0 °F 55.0 °F 55% 30.11 in 7.0 mi Calm Calm - N/A   Clear
9:53 PM 69.1 °F 57.0 °F 65% 30.12 in 10.0 mi East 3.5 mph - N/A   Clear
10:53 PM 66.9 °F 57.0 °F 70% 30.12 in 10.0 mi East 4.6 mph - N/A   Clear
11:53 PM 59.0 °F 55.9 °F 90% 30.12 in 10.0 mi South 3.5 mph - N/A   Clear